Location: Piotrkow Trybunalski
(51.4000°N, 19.6830°E)
Time: 23:30:55
(UTC+01:00)

A-11 Canister half - Pass Details

Date: 17 December 2023
Orbit: 1512 x 1687 km, 47.2° (Epoch: 22 February)

Event Time Altitude Azimuth Distance (km) Brightness Sun altitude
Exits shadow 04:48:07 13° 220° (SW) 3,643 10.6 -25.5°
Drops below altitude 10° 04:50:35 10° 206° (SSW) 3,919 10.9 -25.2°
Sets 04:55:48 0° 184° (S) 4,921 11.7 -24.4°
